Weather Roundup
Issued by NWS Chicago, IL

Home | Current Version | Previous Version | Text Only | Print | Product List | Glossary On
Versions: 1 2 3 4 5 6 7 8 9 10 11 12 13 14 15 16 17 18 19 20 21 22 23 24 25 26 27 28 29 30 31 32 33 34 35 36 37 38 39 40 41 42 43 44 45 46 47 48 49 50
000
NZUS59 KLOT 030921
HRRLOT

CHICAGO AREA WEATHER ROUNDUP
NATIONAL WEATHER SERVICE CHICAGO/ROMEOVILLE IL
400 AM CDT MON AUG 03 2015

NOTE: "FAIR" INDICATES FEW OR NO CLOUDS BELOW 12,000 FEET WITH NO
SIGNIFICANT WEATHER AND/OR OBSTRUCTIONS TO VISIBILITY.

* THESE STATIONS ARE NOT UNDER NWS QUALITY CONTROL. THEY ALSO MAY NOT
  REPORT WEATHER SUCH AS PRECIPITATION OR FOG.

ILZ005-006-012>014-019>023-031000-
NORTHEAST ILLINOIS

CITY           SKY/WX    TMP DP  RH WIND       PRES   REMARKS
OHARE          PTCLDY    68  66  93 W7        29.76R
MIDWAY         MOCLDY    69  64  84 CALM      29.76R
AURORA         CLEAR     66  62  87 SW3       29.78R
LANSING*       PTCLDY    64  64  97 CALM      29.76R
JOLIET*        MOCLDY    67  66  95 CALM      29.78R
WAUKEGAN       CLEAR     67  65  93 W3        29.76R
DUPAGE AIRPORT CLEAR     67  64  90 CALM      29.77R
WHEELING       NOT AVBL
KANKAKEE*      MOCLDY    69  65  88 W5        29.78R
MORRIS*        PTCLDY    67  65  91 NW3       29.77R
LEWIS AIRPORT* PTCLDY    66  65  98 W6        29.78R
NORTHERLY IS     N/A     70  65  84 W5          N/A
$$

WIZ051-052-058>065-066-070>072-031000-
SOUTHEAST WISCONSIN

CITY           SKY/WX    TMP DP  RH WIND       PRES   REMARKS
MILWAUKEE      CLEAR     67  59  75 NW5       29.75R
KENOSHA*       CLEAR     63  61  93 W5        29.76R
RACINE*        CLEAR     64  60  87 W5        29.77R
BURLINGTON     CLEAR     60  58  92 NW5       29.77R
WAUKESHA       CLEAR     63  59  88 W6        29.78R
WEST BEND      CLEAR     61  59  94 NW6       29.77R
$$

INZ001>003-010>013-019-020-031000-
NORTHWEST INDIANA

CITY           SKY/WX    TMP DP  RH WIND       PRES   REMARKS
GARY*          PTCLDY    67  67  99 CALM      29.76S
MICHIGAN CITY* NOT AVBL
RENSSELAER*    NOT AVBL
VALPARAISO     PTCLDY    62  61  96 SE7       29.78  FOG
$$

LMZ740>746-031000-
SOUTHERN LAKE MICHIGAN

STATION/POSITION TIME  SKY/WX   TEMP WIND        PRES    VSBY
                                AIR  DIR/SP/G
                 (UTC)          (F)  (DEG/KT/KT) (MB)    (MI)
HARRISON CRIB    0900            69  280/  8/  9   N/A
BURNHAM HARBOR   0900            70  280/  7       N/A
CALUMET HARBOR   0800            68  240/  2/  3   N/A
BURNS HARBOR     0800            72  300/  6/  7 1008.1R
MICHIGAN CITY    0900            70  290/  3/  4   N/A
$$

ABBREVIATIONS USED IN REMARKS
   TC - TEMPERATURE IN CELSIUS
  WCI - WIND CHILL INDEX
   HX - HEAT INDEX
  VSB - VISIBILITY
$$


USA.gov is the U.S. government's official web portal to all federal, state and local government web resources and services.